Location: Ariel
(45.9570°N, 122.5700°W)
Time: 01:46:31
(UTC-07:00)

Altair - Pass Details

Date: 24 July 2019
Orbit: 1501 x 1683 km, 47.2° (Epoch: 23 August)

Event Time Altitude Azimuth Distance (km) Brightness Sun altitude
Rises 16:13:31 0° 283° (WNW) 4,636 10.6 45.4°
Reaches altitude 10° 16:16:31 10° 283° (WNW) 3,656 10.3 44.9°
Maximum altitude 16:25:44 88° 196° (SSW) 1,525 8.4 43.4°
Drops below altitude 10° 16:35:10 10° 108° (ESE) 3,737 9.3 41.9°
Sets 16:38:16 0° 109° (ESE) 4,742 9.7 41.3°
